Find Starlink 36324

NORAD ID: 68091 Int'l Des: 2026-042 Owner: SPXS Country: US Constellation: starlink operational
LEOCIRCULAR

实时位置

正在加载3D地球...

关于 Starlink 36324

正在加载描述...

即将过境

Passes for default location (London). Set your location on the main map for personalized predictions.

高度历史

Loading altitude history...

两行轨道根数

1 68091U 26042Y 26121.50002315 -.01871332 00000-0 -56983-1 0 9995
2 68091 53.1605 293.0501 0000854 97.0781 341.9750 15.36912417 5941
Epoch: May 1, 2026 • Age: 7 hours

当前状态

高度 465.6 km
速度 7.63 km/s
星下点 -22.26°S, 123.98°E
发射日期 Mar 4, 2026
运行时间 0.1 years
类型 internet

技术详情

分类 Payload
质量 575.00 kg
干质量 530.00 kg
总质量 575.00 kg
长度 0.30 m
直径 4.10 m
跨度 29.00 m
形状 Box + pan
制造商 SPXS
平台类型 Starlink V2MO
阶段状态 In Orbit
所有者/国家 SPXS/US

Most Searched